[Date Prev][Date Next][Thread Prev][Thread Next] - [Date Index][Thread Index][Author Index]
Re: Shuttle Keps
At 09:12 AM 11/6/98 EST, Jim B Luke wrote:
>Can someone please send me an e-mail address of where i can get Space
>Shuttle Keps.
STS-95
1 25519U 98064A 98310.88762379 .00020000 00000-0 14277-3 0 9097
2 25519 28.4687 105.3092 0015684 84.6860 275.5676 15.06587451 1231
Satellite: STS-95
Catalog number: 25519
Epoch time: 98310.88762379 = yrday.fracday
Element set: 909
Inclination: 28.4687 deg
RA of node: 105.3092 deg
Eccentricity: .0015684
Arg of perigee: 84.6860 deg
Mean anomaly: 275.5676 deg
Mean motion: 15.06587451 rev/day
Decay rate: 2.00000E-04 rev/day^2
Epoch rev: 123
Checksum: 332
----
Via the sarex mailing list at AMSAT.ORG courtesy of AMSAT-NA.
To unsubscribe, send "unsubscribe sarex" to Majordomo@amsat.org
AMSAT Home